Location: Philomena
(55.1756°N, 111.6233°W)
Time: 09:41:13
(UTC+00:00)

PCSat - Pass Details

Date: 14 December 2023
Orbit: 784 x 791 km, 67.0° (Epoch: 23 February)

Event Time Altitude Azimuth Distance (km) Brightness Sun altitude
Exits shadow 11:16:06 21° 33° (NNE) 1,724 11.6 -36.6°
Drops below altitude 10° 11:17:54 10° 39° (NE) 2,365 12.5 -36.3°
Sets 11:20:23 0° 44° (NE) 3,298 13.5 -36.0°
